Regional Weather Roundup
Issued by NWS

Home | Current Version | Previous Version | Graphics & Text | Print | Product List | Glossary On
Versions: 1 2 3 4 5 6 7 8 9 10 11 12 13 14 15 16 17 18 19 20 21 22 23 24 25 26 27 28 29 30 31 32 33 34 35 36 37 38 39 40 41 42 43 44 45 46 47 48 49 50
000
ASUS43 KDMX 292207
RWRIA

WEATHER ROUNDUP FOR IOWA
NATIONAL WEATHER SERVICE DES MOINES IA
500 PM CDT MON JUN 29 2015

NOTE: "FAIR" INDICATES FEW OR NO CLOUDS BELOW 12,000 FEET WITH NO
SIGNIFICANT WEATHER AND/OR OBSTRUCTIONS TO VISIBILITY.

* - THESE STATIONS ARE NOT NWS STATIONS...THUS NOT UNDER NWS
QUALITY CONTROL.  THEY ALSO DO NOT REPORT WEATHER SUCH
AS PRECIPITATION OR FOG.

IAZ001>003-012>014-020>022-031>034-043>046-292300-
   NORTHWEST IOWA

CITY           SKY/WX    TMP DP  RH WIND       PRES   REMARKS
CARROLL *      SUNNY     81  63  54 NW12      29.89F HX  82
CHEROKEE *     SUNNY     79  63  57 NW5       29.90F HX  80
DENISON *      SUNNY     79  63  57 NW8       29.89F HX  80
LE MARS *      SUNNY     81  63  54 NW9       29.92S HX  82
ORANGE CITY *  SUNNY     79  61  53 NW12      29.92S HX  80
SHELDON *      SUNNY     81  61  50 W13       29.90S HX  81
SIOUX CITY     SUNNY     85  58  39 NW9       29.90F HX  84
SPENCER        SUNNY     82  62  50 NW10      29.89F HX  83
STORM LAKE *   SUNNY     79  63  57 NW9       29.92S HX  80
$$

IAZ055>058-069>071-079>083-090>094-292300-
   SOUTHWEST IOWA

CITY           SKY/WX    TMP DP  RH WIND       PRES   REMARKS
ATLANTIC *     SUNNY     81  61  50 N9G16     29.91S HX  81
AUDUBON *      SUNNY     81  63  54 NW7       29.92S HX  82
CLARINDA *     SUNNY     84  64  51 NW10G16   29.92S HX  86
COUNCIL BLFS * SUNNY     82  63  51 N9        29.92F HX  83
CRESTON *      MOSUNNY   81  63  54 NW10      29.91S HX  82
HARLAN  *      SUNNY     81  63  54 NW10      29.94F HX  82
LAMONI         SUNNY     83  65  54 N7        29.90R HX  85
RED OAK *      SUNNY     82  63  51 N10G16    29.91F HX  83
SHENANDOAH *   SUNNY     84  63  48 NW8G14    29.91F HX  85
$$

IAZ047>049-059>061-072>074-084-292300-
   CENTRAL IOWA

CITY           SKY/WX    TMP DP  RH WIND       PRES   REMARKS
AMES           SUNNY     80  63  55 NW14      29.86F HX  81
ANKENY *       MOSUNNY   81  64  57 NW10      29.86S HX  82
CHARITON *     SUNNY     79  66  65 NW6G12    29.88S HX  81
DES MOINES     CLOUDY    82  61  48 NW16      29.86F HX  83
GRINNELL*      MOSUNNY   79  64  61 W9        29.85F HX  81
KNOXVILLE *    SUNNY     79  64  61 NW10      29.85F HX  81
MARSHALLTOWN   SUNNY     80  64  58 NW12      29.84S HX  82
PELLA *        MOSUNNY   81  68  65 NW10      29.86S HX  83
PERRY *          N/A     81  63  54 NW9       29.88S HX  82
$$

IAZ004>006-015-016-023>025-035-036-292300-
   NORTH CENTRAL IOWA

CITY           SKY/WX    TMP DP  RH WIND       PRES   REMARKS
ALGONA *       SUNNY     81  61  50 NW13      29.87S HX  81
CLARION *      MOSUNNY   81  63  54 NW14      29.86S HX  82
ESTHERVILLE    SUNNY     80  62  54 NW10      29.87F HX  81
FORT DODGE *   SUNNY     79  63  57 NW8       29.88S HX  80
MASON CITY     MOSUNNY   80  65  59 W14       29.85S HX  82
FOREST CITY *  SUNNY     77  63  61 W13       29.85S
IOWA FALLS *     N/A     81  63  54 NW13      29.86S HX  82
$$

IAZ007>011-017>019-026>030-037>042-050>054-066-292300-
   NORTHEAST IOWA

CITY           SKY/WX    TMP DP  RH WIND       PRES   REMARKS
CEDAR RAPIDS   MOSUNNY   81  65  58 NW13      29.81S HX  83
CHARLES CITY * MOSUNNY   79  66  65 W8G17     29.83R HX  81
CLINTON *      SUNNY     77  64  65 W10       29.82S
DECORAH *        N/A    N/A N/A N/A MISG        N/A
DUBUQUE        MOSUNNY   79  63  57 NW8       29.81R HX  80
MONTICELLO *   MOSUNNY   81  -8   3 W8        29.80S
OELWEIN *      MOSUNNY   81  64  57 W14G21    29.81F HX  82
WATERLOO       SUNNY     81  62  52 NW12      29.80F HX  82
$$

IAZ064-065-067-068-078-292300-
   EAST CENTRAL IOWA

CITY           SKY/WX    TMP DP  RH WIND       PRES   REMARKS
DAVENPORT      MOSUNNY   79  64  60 W10       29.81S HX  81
IOWA CITY      SUNNY     81  63  54 NW9       29.82S HX  82
MT. PLEASANT * MOSUNNY   82  61  47 W5        29.83S HX  83
MUSCATINE *    MOSUNNY   82  64  54 W10       29.81S HX  84
QUAD CITIES    MOSUNNY   81  65  58 W10       29.80F HX  83
$$

IAZ062-063-075>077-085>089-095>099-292300-
   SOUTHEAST IOWA

CITY           SKY/WX    TMP DP  RH WIND       PRES   REMARKS
BURLINGTON     PTSUNNY   82  67  60 W7        29.83S HX  84
FAIRFIELD *    MOSUNNY   81  66  61 W8G16     29.83F HX  83
FORT MADISON * SUNNY     81  70  69 W7        29.84S HX  84
KEOKUK *       SUNNY     81  70  69 W7        29.83F HX  84
OSKALOOSA *      N/A     81  66  61 W10       29.85S HX  83
CENTERVILLE *  SUNNY     81  64  57 NW12      29.89S HX  82
OTTUMWA        SUNNY     80  67  64 W12       29.83F HX  82
WASHINGTON *   MOSUNNY   82  66  57 NW12      29.83F HX  85
$$

ABBREVIATIONS USED IN REMARKS
   TC - TEMPERATURES IN CELSIUS
  WCI - WIND CHILL INDEX
   HX - HEAT INDEX
  VSB - VISIBILITY
$$



USA.gov is the U.S. government's official web portal to all federal, state and local government web resources and services.